• Join FlightAware (Why Join?)
  • Login
  • US Flag GB Flag 
12:10 EDT


 

Airport Tracker/Info


-or-


 

Live Flight TrackerFlight Track Log ✈ DAL4165 ✈ 29-Apr-2013 ✈ KATL - KOKC

Flight Track Log - Related Links

Times and Time Zones

All times are in EDT time to prevent confusion due to time zone crossing. See the DAL4165 flight status page for this flight to view local times or setup timezone preferences in your user account.

Time Position Orientation Groundspeed Altitude Reporting Facility
EDT Latitude Longitude Course Direction KTS MPH feet Rate Location/Type
16:40 33.6500 -84.4833 252° West 182 209 2,900  Level Atlanta TRACON
16:41 33.6667 -84.5500 287° West 244 281 4,800 2,640 Climbing Atlanta TRACON
16:42 33.6833 -84.6500 281° West 263 303 8,200 2,400 Climbing Atlanta TRACON
16:43 33.6939 -84.8053 275° West 304 350 11,400 1,980 Climbing Atlanta Center
16:44 33.6825 -84.9175 263° West 328 377 13,700 2,100 Climbing Atlanta Center
16:45 33.7571 -84.7722 252° West  Level FlightAware Approximate
16:45 33.6692 -85.0347 262° West 355 409 15,700  Level Atlanta Center
16:46 33.6578 -85.1444 263° West 368 423 17,500 1,740 Climbing Atlanta Center
16:47 33.6503 -85.2717 266° West 374 430 19,200 1,740 Climbing Atlanta Center
16:48 33.6531 -85.4014 272° West 384 442 21,000 1,680 Climbing Atlanta Center
16:49 33.6536 -85.5361 270° West 394 453 22,600 1,500 Climbing Atlanta Center
16:50 33.6561 -85.6708 271° West 406 467 24,100 1,560 Climbing Atlanta Center
16:51 33.6583 -85.8183 271° West 412 474 25,800 1,560 Climbing Atlanta Center
16:52 33.6603 -85.9606 271° West 407 468 27,300 1,500 Climbing Atlanta Center
16:53 33.6622 -86.0978 271° West 417 480 28,800 1,440 Climbing Atlanta Center
16:54 33.6619 -86.2400 270° West 422 486 30,200 1,080 Climbing Atlanta Center
16:55 33.6656 -86.3800 272° West 422 486 31,000 600 Climbing Atlanta Center
16:56 33.6647 -86.5322 270° West 428 493 31,500 900 Climbing Atlanta Center
16:57 33.6678 -86.6819 271° West 441 507 32,800 1,200 Climbing Atlanta Center
16:58 33.6689 -86.8269 271° West 441 507 34,000 600 Climbing Atlanta Center
16:59 33.6864 -86.9722 278° West 441 507 34,000  Level Atlanta Center
17:00 33.7181 -87.1231 284° West 448 516 34,000 600 Level Atlanta Center
17:02 33.7742 -87.3983 284° West 477 549 35,700 660 Climbing Memphis Center
17:03 33.8047 -87.5425 284° West 464 534 36,000 120 Climbing Memphis Center
17:04 33.8350 -87.6839 284° West 451 519 36,000  Level Memphis Center
17:05 33.8694 -87.8306 286° West 451 519 36,000  Level Memphis Center
17:06 33.8972 -87.9772 283° West 450 518 36,000  Level Memphis Center
17:07 33.9250 -88.1267 283° West 463 533 36,000  Level Memphis Center
17:08 33.9569 -88.2786 284° West 464 534 36,000  Level Memphis Center
17:09 33.9864 -88.4283 283° West 469 540 36,000  Level Memphis Center
17:10 34.0181 -88.5803 284° West 469 540 36,000  Level Memphis Center
17:11 34.0472 -88.7328 283° West 469 540 36,000  Level Memphis Center
17:12 34.0719 -88.8625 283° West 461 531 36,000  Level Memphis Center
17:13 34.1008 -89.0150 283° West 455 524 36,000  Level Memphis Center
17:14 34.1314 -89.1678 284° West 463 533 36,000  Level Memphis Center
17:15 34.1619 -89.3178 284° West 469 540 36,000  Level Memphis Center
17:16 34.1883 -89.4733 282° West 469 540 36,000  Level Memphis Center
17:17 34.2228 -89.6411 284° West 469 540 36,000  Level Memphis Center
17:18 34.2506 -89.7917 283° West 469 540 36,000  Level Memphis Center
17:19 34.2783 -89.9450 282° West 469 540 36,000  Level Memphis Center
17:20 34.3061 -90.0981 282° West 469 540 36,000  Level Memphis Center
17:21 34.3356 -90.2464 284° West 469 540 36,000  Level Memphis Center
17:22 34.3625 -90.4000 282° West 464 534 36,000  Level Memphis Center
17:23 34.3875 -90.5333 283° West 464 534 36,000  Level Memphis Center
17:24 34.4164 -90.6844 283° West 464 534 36,000  Level Memphis Center
17:25 34.4431 -90.8331 282° West 464 534 36,000  Level Memphis Center
17:26 34.4694 -90.9869 282° West 464 534 36,000  Level Memphis Center
17:27 34.4981 -91.1383 283° West 469 540 36,000  Level Memphis Center
17:28 34.5261 -91.2897 283° West 469 540 36,000  Level Memphis Center
17:29 34.5539 -91.4567 281° West 464 534 36,000  Level Memphis Center
17:30 34.5797 -91.6083 282° West 464 534 36,000  Level Memphis Center
17:31 34.6053 -91.7550 282° West 464 534 36,000  Level Memphis Center
17:32 34.6328 -91.9044 283° West 464 534 36,000  Level Memphis Center
17:33 34.6578 -92.0539 282° West 459 528 36,000  Level Memphis Center
17:34 34.6808 -92.2083 280° West 459 528 36,000  Level Memphis Center
17:35 34.7036 -92.3553 281° West 459 528 36,000  Level Memphis Center
17:36 34.7261 -92.5100 280° West 459 528 36,000  Level Memphis Center
17:37 34.7108 -92.6636 263° West 459 528 36,000  Level Memphis Center
17:38 34.6889 -92.8172 260° West 459 528 36,000  Level Memphis Center
17:39 34.6797 -92.9683 266° West 459 528 36,000  Level Memphis Center
17:40 34.6722 -93.1247 267° West 459 528 36,000  Level Memphis Center
17:41 34.6872 -93.2844 277° West 459 528 36,000  Level Memphis Center
17:42 34.7131 -93.4317 282° West 459 528 36,000  Level Memphis Center
17:43 34.7383 -93.5842 281° West 466 536 36,000  Level Memphis Center
17:44 34.7656 -93.7394 282° West 471 542 36,000  Level Memphis Center
17:45 34.7925 -93.8925 282° West 465 535 36,000  Level Memphis Center
17:46 34.8194 -94.0453 282° West 465 535 36,000  Level Memphis Center
17:47 34.8419 -94.1981 280° West 465 535 36,000  Level Memphis Center
17:48 34.8703 -94.3536 283° West 470 541 36,000  Level Memphis Center
17:49 34.8925 -94.5067 280° West 470 541 36,000  Level Memphis Center
17:50 34.9214 -94.6661 283° West 453 521 36,000  Level Fort Worth Center
17:51 34.9456 -94.8122 281° West 453 521 36,000  Level Fort Worth Center
17:52 34.9714 -94.9658 282° West 453 521 36,000  Level Fort Worth Center
17:53 34.9911 -95.1175 279° West 453 521 36,000  Level Fort Worth Center
17:54 35.0189 -95.2789 282° West 447 514 36,000  Level Fort Worth Center
17:55 35.0422 -95.4306 281° West 447 514 36,000  Level Fort Worth Center
17:56 35.0633 -95.5769 280° West 447 514 36,000  Level Fort Worth Center
17:57 35.0861 -95.7236 281° West 447 514 36,000 -960 Level Fort Worth Center
17:58 35.1089 -95.8731 281° West 447 514 34,100 -2,100 Descending Fort Worth Center
17:59 35.1317 -96.0275 280° West 447 514 31,800 -2,760 Descending Fort Worth Center
18:00 35.1519 -96.1769 279° West 452 520 28,600 -3,120 Descending Fort Worth Center
18:01 35.1764 -96.3289 281° West 452 520 25,600 -3,000 Descending Fort Worth Center
18:02 35.1983 -96.4811 280° West 457 526 22,600 -3,180 Descending Fort Worth Center
18:03 35.2072 -96.5369 281° West 460 529 21,400 -3,000 Descending Fort Worth Center
18:03 35.2203 -96.6283 280° West 451 519 19,600 -2,760 Descending Fort Worth Center
18:04 35.2267 -96.6589 284° West 433 498 18,900 -3,000 Descending Fort Worth Center
18:04 35.2397 -96.7653 279° West 438 504 16,600 -2,820 Descending Fort Worth Center
18:05 35.2461 -96.7958 284° West 404 465 16,100 -2,520 Descending Fort Worth Center
18:05 35.2572 -96.8950 278° West 416 479 14,100 -2,700 Descending Fort Worth Center
18:06 35.2636 -96.9331 282° West 379 436 13,400 -2,520 Descending Fort Worth Center
18:06 35.2742 -97.0194 279° West 390 449 11,600 -2,400 Descending Fort Worth Center
18:07 35.2806 -97.0575 282° West 367 422 11,000 -1,440 Descending Fort Worth Center
18:08 35.3017 -97.1642 284° West 308 354 9,800 -1,200 Descending Fort Worth Center
18:08 35.3289 -97.2228 300° West 326 375 9,000 -1,200 Descending Fort Worth Center
18:09 35.3414 -97.2481 301° West 278 320 8,600 -1,440 Descending Fort Worth Center
18:09 35.3667 -97.3067 298° West 296 341 7,600 -1,620 Descending Fort Worth Center
18:10 35.3792 -97.3322 301° West 280 322 7,000 -1,800 Descending Fort Worth Center
18:10 35.4019 -97.3831 299° West 285 328 5,800 -1,800 Descending Fort Worth Center